#timestamp,LO_Frequency,Hit,StdDev 
1600556415.4,286046994.2,N
1600556435.2,286046993.6,N
1600556455.0,286046993.3,N
1600556455.9,286046993.3,N
1600556475.8,286046996.1,N
1600556495.6,286046997.0,N
1600556515.4,286046997.3,N
1600556535.3,286046993.7,N
1600556555.1,286046996.4,N
1600556575.9,286046997.2,N
1600556595.7,286046996.5,N
1600556615.5,286046997.3,N
1600556635.4,286046999.3,N
1600556655.2,286046999.4,N
1600556675.0,286046996.8,N
1600556676.0,286046996.8,N
1600556695.8,286046997.0,N
1600556715.6,286046999.2,N
1600556735.5,286046998.4,N
1600556755.3,286046998.4,N
1600556775.1,286046997.0,N
1600556795.9,286046996.9,N
1600556815.7,286046999.0,N
1600556835.6,286046996.9,N
1600556855.4,286046997.1,N
1600556875.2,286046998.9,N
1600556895.1,286046999.3,N
1600556896.0,286046999.3,N
1600556915.8,286046998.9,N
1600556935.6,286046996.6,N
1600556955.5,286046998.5,N
1600556975.3,286047000.5,N
1600556995.2,286047000.3,N
1600557015.9,286047001.0,N
1600557035.7,286047000.5,N
1600557055.6,286046998.5,N
1600557075.4,286046998.8,N
1600557095.2,286046997.1,N
1600557115.1,286046996.9,N
1600557116.0,286046996.9,N
1600557135.8,286046997.1,N
1600557155.7,286046997.2,N
1600557175.5,286046998.8,N
1600557195.3,286047000.4,N
1600557215.2,286047001.0,N
1600557235.0,286047000.6,N
1600557235.9,286047000.6,N
1600557255.7,286046996.9,N
1600557275.6,286046998.8,N
1600557295.4,286047000.2,N
1600557315.3,286046999.7,N
1600557335.1,286047000.5,N
1600557336.0,286047000.5,N
1600557355.8,286047001.2,N
1600557375.7,286046996.7,N
1600557395.5,286046999.5,N
1600557415.3,286047000.7,N
1600557435.2,286047000.5,N
1600557455.0,286047000.6,N
1600557455.9,286047000.6,N
1600557475.8,286047000.3,N
1600557495.6,286046999.2,N
1600557515.4,286046999.1,N
1600557535.3,286046999.2,N
1600557555.1,286046996.7,N
1600557575.9,286046996.9,N
1600557595.7,286047000.9,N
1600557615.5,286047000.0,N
1600557635.4,286047002.5,N
1600557655.2,286047000.4,N
1600557675.0,286047001.2,N
1600557675.9,286047001.2,N
1600557695.8,286046998.1,N
1600557715.6,286046998.1,N
1600557735.5,286047001.2,N
1600557755.3,286047000.9,N
1600557775.1,286047001.1,N
1600557795.9,286047000.2,N
1600557815.7,286047000.9,N
1600557835.5,286047000.7,N
1600557855.4,286046998.4,N
1600557875.2,286046998.6,N
1600557895.1,286047000.4,N
1600557896.0,286047000.4,N
1600557915.8,286047004.3,N
1600557935.6,286047002.3,N
1600557955.5,286047001.6,N
1600557975.3,286047002.7,N
1600557995.1,286047000.7,N
1600558015.9,286047000.8,N
1600558035.7,286047000.5,N
1600558055.6,286047002.5,N
1600558075.4,286047004.0,N
1600558095.2,286046999.9,N
1600558115.1,286047001.5,N
1600558116.0,286047001.5,N
1600558135.8,286047001.5,N
1600558155.7,286047003.3,N
1600558175.5,286047002.4,N
1600558195.3,286047001.1,N
1600558215.2,286047000.6,N
1600558235.0,286047000.6,N
1600558235.9,286047000.6,N
1600558255.7,286047001.2,N
1600558275.6,286046998.4,N
1600558295.4,286047000.3,N
1600558315.3,286046998.1,N
1600558335.1,286046997.7,N
1600558336.0,286046997.7,N
1600558355.8,286046999.2,N
1600558375.7,286046997.9,N
1600558395.5,286046997.6,N
1600558415.4,286046995.7,N
1600558435.2,286047001.2,N
1600558455.0,286046998.1,N
1600558455.9,286046998.1,N
1600558475.8,286046999.4,N
1600558495.6,286046996.9,N
1600558515.4,286046999.1,N
1600558535.3,286047000.4,N
1600558555.1,286046999.8,N
1600558575.9,286046997.1,N
1600558595.7,286046996.9,N
1600558615.5,286046999.0,N
1600558635.4,286046998.2,N
1600558655.2,286047000.9,N
1600558675.0,286046999.4,N
1600558675.9,286046999.4,N
1600558695.8,286047000.6,N
1600558715.6,286047000.8,N
1600558735.5,286047000.2,N
1600558755.3,286046998.3,N
1600558775.1,286046996.8,N
1600558795.9,286046997.1,N
1600558815.7,286046999.5,N
1600558835.6,286046997.2,N
1600558855.4,286046999.1,N
1600558875.2,286046995.4,Y
1600558895.1,286046996.7,P
1600558896.0,286046996.7,P
1600558915.8,286046998.4,N
1600558935.6,286047002.8,Y
1600558955.5,286047004.0,P
1600558975.3,286047003.1,N
1600558995.2,286047003.5,N
1600559015.9,286047006.0,N
1600559035.7,286047004.6,N
1600559055.6,286047005.3,N
1600559075.4,286047009.1,Y
1600559095.3,286047000.0,P
1600559115.1,286047000.2,N
1600559116.0,286047000.2,N
1600559135.8,286047001.3,N
1600559155.7,286047002.4,N
1600559175.5,286047001.2,N
1600559195.3,286046998.5,N
1600559215.2,286047001.2,N
1600559235.0,286046998.8,N
1600559235.9,286046998.8,N
1600559255.8,286046998.4,N
1600559275.6,286046999.8,N
1600559295.4,286046999.9,N
1600559315.3,286046996.8,N
1600559335.1,286046996.6,N
1600559355.8,286046999.4,N
1600559375.7,286046999.5,N
1600559395.5,286046996.7,N
1600559415.4,286046997.7,N
1600559435.2,286046997.0,N
1600559455.0,286046996.5,N
1600559455.9,286046996.5,N
1600559475.8,286046997.6,N
1600559495.6,286046995.9,N
1600559515.4,286046996.1,N
1600559535.3,286046997.8,N
1600559555.1,286046999.4,N
1600559575.9,286046996.9,N
1600559595.7,286046995.9,N
1600559615.5,286046996.0,N
1600559635.4,286046995.5,N
1600559655.2,286046995.2,N
1600559675.0,286046997.3,N
1600559676.0,286046997.3,N
1600559695.8,286046998.8,N
1600559715.6,286047000.8,N
1600559735.5,286047000.0,N
1600559755.3,286047003.8,N
1600559775.1,286047002.5,N
1600559795.9,286047001.0,N
1600559815.7,286046998.1,N
1600559835.6,286046996.9,N
1600559855.4,286046996.2,N
1600559875.2,286046997.5,N
1600559895.1,286046998.2,N
1600559896.0,286046998.2,N
1600559915.8,286046998.1,N
1600559935.6,286046999.0,N
1600559955.5,286046998.8,N
1600559975.3,286046998.5,N
1600559995.2,286047000.7,N
